Flag for Bermuda Weather past 2 weeks in Hamilton, Bermuda

Now
79 °F

Passing clouds.


Feels Like: 81 °F
Forecast: 78 / 82 °F
Wind: 12 mph from Northwest

Location: Bermuda

Current Time: Jul 29, 2015 at 2:16:27 AM

Latest Report: Jul 29, 2015 at 12:55 AM


Visibility: N/A

Pressure: 30.04 "Hg

Humidity: 74%

Dew point: 70 °F

Location of HamiltonLocation

Historic Weather in Hamilton — Graph

°F

Hamilton temperature yesterday

Maximum temperature yesterday: 84 °F (at 1:55 PM)
Minimum temperature yesterday: 77 °F (at 2:55 AM)
Average temperature yesterday: 80 °F

Past Weeks' High & Low Weather Summary

 TemperatureHumidityPressure
High88 °F (Jul 14, 1:55 PM)100% (Jul 25, 11:55 AM)30.15 "Hg (Jul 25, 11:55 AM)
Low73 °F (Jul 26, 5:55 AM)59% (Jul 17, 2:55 PM)29.86 "Hg (Jul 25, 3:55 AM)
Average81 °F78%30.04 "Hg
* Reported Jul 14 12:55 AM — Jul 29 12:55 AM, Hamilton, Weather by CustomWeather, © 2015

Note: Actual official high and low records may vary slightly from our data, if they occured in-between our weather recording intervals... More about our weather records

Advertising

Hamilton weather history for previous 24 hours

 ConditionsComfort  
Time TempWeatherWind HumidityBarometerVisibility
12:55 AM
Wed, Jul 29
79 °FPassing clouds.12 mph74%30.04 "HgN/A
11:55 PM
Tue, Jul 28
79 °FPassing clouds.13 mph70%30.04 "HgN/A
10:55 PM79 °FPartly cloudy.10 mph70%30.04 "HgN/A
9:55 PM79 °FPassing clouds.15 mph70%30.01 "HgN/A
8:55 PM79 °FScattered showers. Mostly cloudy.15 mph74%30.01 "HgN/A
6:55 PM81 °FSprinkles. Partly sunny.17 mph79%29.98 "HgN/A
5:55 PM81 °FScattered showers. Broken clouds.20 mph79%29.98 "HgN/A
4:55 PM77 °FScattered showers. Broken clouds.20 mph89%29.98 "HgN/A
4:04 PM79 °FRain showers. Cloudy.18 mph84%29.98 "HgN/A
2:55 PM81 °FScattered showers. Broken clouds.23 mph84%29.98 "HgN/A
1:55 PM84 °FBroken clouds.25 mph70%29.98 "HgN/A
12:55 PM82 °FBroken clouds.24 mph74%30.01 "HgN/A
11:55 AM82 °FBroken clouds.22 mph74%30.01 "HgN/A
10:55 AM81 °FCloudy.24 mph74%30.01 "HgN/A
9:55 AM79 °FBroken clouds.31 mph79%29.98 "HgN/A
8:55 AM82 °FScattered showers. Broken clouds.23 mph74%29.98 "HgN/A
7:55 AM82 °FBroken clouds.23 mph74%29.98 "HgN/A
6:55 AM81 °FPartly cloudy.23 mph79%29.98 "HgN/A
5:55 AM79 °FPartly cloudy.22 mph79%29.98 "HgN/A
4:55 AM79 °FPartly cloudy.18 mph79%29.98 "HgN/A
3:55 AM79 °FPartly cloudy.17 mph84%29.98 "HgN/A
2:55 AM77 °FPartly cloudy.20 mph89%30.01 "HgN/A
Weather by CustomWeather, © 2015

See weather overviewHow to use our weather pages